FW2156 Weather Reports


Display with metric or nautical units.
time (UTC)temp
F
wind
direction
speed
MPH
gust
MPH
rain 1hr
in
rain 24hr
in
rain mn
in
humidity
%
barometer
mb
20260507114612 50 229 0.0 1.0 0.00 0.00 0.00 60 1008.5
20260507114113 50 242 3.0 3.0 0.00 0.00 0.00 60 1008.5
20260507113613 50 228 2.0 3.0 0.00 0.00 0.00 60 1008.5
20260507113111 50 236 1.0 2.0 0.00 0.00 0.00 59 1008.5
20260507112613 50 238 0.0 1.0 0.00 0.00 0.00 60 1008.5
20260507112113 50 288 3.0 5.0 0.00 0.00 0.00 60 1008.5
20260507111614 51 250 2.0 2.0 0.00 0.00 0.00 61 1008.5
20260507111113 51 248 1.0 1.0 0.00 0.00 0.00 62 1008.5
20260507110610 51 230 0.0 1.0 0.00 0.00 0.00 62 1008.5
20260507110112 51 246 1.0 2.0 0.00 0.00 0.00 62 1008.5
20260507105612 51 323 1.0 1.0 0.00 0.00 0.00 61 1008.5
20260507105111 51 289 2.0 2.0 0.00 0.00 0.00 60 1008.1
20260507104611 51 253 0.0 1.0 0.00 0.00 0.00 59 1008.1
20260507104113 51 280 3.0 5.0 0.00 0.00 0.00 58 1008.1
20260507103611 51 292 1.0 1.0 0.00 0.00 0.00 61 1008.1
20260507103114 51 237 1.0 1.0 0.00 0.00 0.00 62 1008.5
20260507102613 51 242 2.0 2.0 0.00 0.00 0.00 62 1008.1
20260507102112 51 133 0.0 1.0 0.00 0.00 0.00 63 1008.1
20260507101615 51 252 1.0 1.0 0.00 0.00 0.00 59 1008.1
20260507101113 51 244 0.0 0.0 0.00 0.00 0.00 59 1007.8
20260507100613 51 251 0.0 1.0 0.00 0.00 0.00 60 1008.1
20260507100113 51 242 0.0 0.0 0.00 0.00 0.00 60 1008.1
20260507095612 51 242 0.0 1.0 0.00 0.00 0.00 60 1007.8
20260507095111 50 259 2.0 2.0 0.00 0.00 0.00 61 1007.8
20260507094615 50 251 1.0 2.0 0.00 0.00 0.00 65 1008.1
20260507094110 50 265 2.0 2.0 0.00 0.00 0.00 65 1008.1
20260507093537 50 247 1.0 1.0 0.00 0.00 0.00 64 1008.5
20260507093038 51 271 1.0 2.0 0.00 0.00 0.00 65 1008.5
20260507092540 51 248 1.0 2.0 0.00 0.00 0.00 64 1008.1
20260507092038 51 246 0.0 1.0 0.00 0.00 0.00 59 1008.5
20260507091542 51 238 1.0 1.0 0.00 0.00 0.00 59 1008.1
20260507091040 51 240 1.0 1.0 0.00 0.00 0.00 58 1007.8
20260507090516 51 248 2.0 3.0 0.00 0.00 0.00 58 1008.1
20260507090014 51 241 1.0 2.0 0.00 0.00 0.00 57 1008.1
20260507085513 51 241 2.0 2.0 0.00 0.00 0.00 58 1007.8
20260507085016 51 247 1.0 2.0 0.00 0.00 0.00 58 1007.8
20260507084512 51 260 0.0 1.0 0.00 0.00 0.00 58 1007.8
20260507084014 52 244 0.0 1.0 0.00 0.00 0.00 59 1008.1
20260507083513 52 246 1.0 1.0 0.00 0.00 0.00 58 1008.1
20260507083013 52 277 1.0 1.0 0.00 0.00 0.00 57 1008.1
20260507082510 52 227 0.0 1.0 0.00 0.00 0.00 58 1008.1
20260507082012 53 264 1.0 1.0 0.00 0.00 0.00 57 1008.1
20260507081514 53 274 2.0 3.0 0.00 0.00 0.00 57 1008.1
20260507081012 53 234 1.0 2.0 0.00 0.00 0.00 57 1008.1
20260507080443 53 224 1.0 1.0 0.00 0.00 0.00 57 1008.5
20260507075938 53 225 0.0 0.0 0.00 0.00 0.00 56 1008.1
20260507075440 53 259 1.0 1.0 0.00 0.00 0.00 55 1008.5
20260507074939 53 242 0.0 0.0 0.00 0.00 0.00 54 1008.5
20260507074444 53 240 0.0 1.0 0.00 0.00 0.00 55 1008.5
20260507073938 53 252 1.0 1.0 0.00 0.00 0.00 55 1008.5
20260507073437 53 250 0.0 1.0 0.00 0.00 0.00 55 1008.8
20260507072939 53 247 0.0 0.0 0.00 0.00 0.00 54 1008.5
20260507072511 53 247 0.0 0.0 0.00 0.00 0.00 54 1008.5
20260507072011 53 247 0.0 0.0 0.00 0.00 0.00 54 1008.5
20260507071510 53 247 0.0 1.0 0.00 0.00 0.00 54 1008.5
20260507071011 53 246 0.0 0.0 0.00 0.00 0.00 54 1008.5
20260507070512 53 246 0.0 0.0 0.00 0.00 0.00 54 1008.5
20260507070039 53 246 0.0 0.0 0.00 0.00 0.00 54 1008.5
20260507065609 53 246 0.0 0.0 0.00 0.00 0.00 54 1008.5
20260507065113 53 246 0.0 0.0 0.00 0.00 0.00 53 1008.8
20260507064636 53 246 0.0 0.0 0.00 0.00 0.00 53 1008.8
20260507064142 52 246 0.0 1.0 0.00 0.00 0.00 53 1008.5
20260507063713 52 244 0.0 0.0 0.00 0.00 0.00 53 1008.5
20260507063210 52 238 0.0 0.0 0.00 0.00 0.00 53 1008.8
20260507062737 52 244 0.0 0.0 0.00 0.00 0.00 53 1008.5
20260507062242 52 244 0.0 1.0 0.00 0.00 0.00 52 1008.5
20260507061743 52 239 0.0 0.0 0.00 0.00 0.00 52 1008.5
20260507061240 52 146 1.0 1.0 0.00 0.00 0.00 52 1008.5
20260507060736 53 225 0.0 0.0 0.00 0.00 0.00 53 1008.5
20260507060311 53 224 0.0 0.0 0.00 0.00 0.00 53 1008.5
20260507055839 53 224 0.0 0.0 0.00 0.00 0.00 52 1008.5
20260507055342 53 224 0.0 0.0 0.00 0.00 0.00 51 1008.5
20260507054841 53 226 0.0 0.0 0.00 0.00 0.00 51 1008.1
20260507054343 54 189 0.0 0.0 0.00 0.00 0.00 52 1008.1
20260507053838 54 152 0.0 0.0 0.00 0.00 0.00 52 1008.1
20260507053339 54 152 0.0 0.0 0.00 0.00 0.00 51 1008.1
20260507052837 54 152 0.0 0.0 0.00 0.00 0.00 50 1008.1
20260507052337 55 266 0.0 1.0 0.00 0.00 0.00 50 1007.8
20260507051835 55 195 0.0 0.0 0.00 0.00 0.00 49 1007.8
20260507051338 55 154 0.0 0.0 0.00 0.00 0.00 49 1008.5
20260507050836 55 155 0.0 0.0 0.00 0.00 0.00 49 1008.1
20260507050337 55 119 0.0 1.0 0.00 0.00 0.00 48 1008.1
20260507045839 55 171 0.0 0.0 0.00 0.00 0.00 49 1007.8
20260507045329 55 133 0.0 1.0 0.00 0.00 0.00 48 1008.1
20260507044830 55 124 1.0 1.0 0.00 0.00 0.00 49 1007.8
20260507044331 56 123 1.0 1.0 0.00 0.00 0.00 49 1007.8
20260507043829 56 132 0.0 1.0 0.00 0.00 0.00 48 1007.5
20260507043330 56 120 1.0 1.0 0.00 0.00 0.00 48 1007.5
20260507042828 56 137 0.0 1.0 0.00 0.00 0.00 48 1007.5
20260507042328 57 162 0.0 0.0 0.00 0.00 0.00 48 1007.5
20260507041829 57 122 0.0 1.0 0.00 0.00 0.00 48 1007.1
20260507041331 57 148 0.0 1.0 0.00 0.00 0.00 48 1007.1
20260507040828 57 115 2.0 2.0 0.00 0.00 0.00 48 1007.5
20260507040327 57 160 0.0 1.0 0.00 0.00 0.00 47 1007.1
20260507035828 58 115 1.0 2.0 0.00 0.00 0.00 47 1007.1
20260507035328 58 103 3.0 3.0 0.00 0.00 0.00 47 1007.1
20260507034828 58 111 3.0 5.0 0.00 0.00 0.00 48 1006.8
20260507034328 58 81 3.0 3.0 0.00 0.00 0.00 48 1006.8
20260507033827 59 105 3.0 3.0 0.00 0.00 0.00 49 1006.8
20260507033327 59 144 0.0 0.0 0.00 0.00 0.00 48 1006.4
20260507032829 59 114 0.0 1.0 0.00 0.00 0.00 48 1006.8
20260507032327 60 135 1.0 1.0 0.00 0.00 0.00 47 1006.4
20260507031826 60 116 5.0 10.0 0.00 0.00 0.00 47 1006.4
20260507031327 61 149 5.0 6.0 0.00 0.00 0.00 45 1006.4
20260507030827 61 109 2.0 3.0 0.00 0.00 0.00 44 1006.4
20260507030328 62 121 4.0 8.0 0.00 0.00 0.00 43 1006.1
20260507025827 62 153 3.0 5.0 0.00 0.00 0.00 42 1006.1
20260507025325 63 93 5.0 8.0 0.00 0.00 0.00 42 1006.1
20260507024826 64 66 5.0 7.0 0.00 0.00 0.00 41 1006.1
20260507024327 64 81 2.0 5.0 0.00 0.00 0.00 42 1006.1
20260507023827 64 212 2.0 5.0 0.00 0.00 0.00 41 1005.8
20260507023326 65 127 0.0 1.0 0.00 0.00 0.00 41 1005.8
20260507022826 65 128 3.0 5.0 0.00 0.00 0.00 41 1005.4
20260507022326 65 62 2.0 2.0 0.00 0.00 0.00 41 1005.4
20260507021825 66 67 2.0 3.0 0.00 0.00 0.00 40 1005.4
20260507021326 66 96 3.0 6.0 0.00 0.00 0.00 40 1005.4
20260507020826 66 1 3.0 3.0 0.00 0.00 0.00 40 1005.4
20260507020323 67 72 5.0 9.0 0.00 0.00 0.00 40 1005.1
20260507015824 67 265 1.0 2.0 0.00 0.00 0.00 39 1005.1
20260507015329 67 123 1.0 2.0 0.00 0.00 0.00 39 1005.1
20260507014825 67 112 2.0 3.0 0.00 0.00 0.00 39 1004.7
20260507014324 67 215 0.0 1.0 0.00 0.00 0.00 39 1005.1
20260507013824 66 185 3.0 5.0 0.00 0.00 0.00 39 1005.1
20260507013325 66 310 1.0 1.0 0.00 0.00 0.00 39 1005.1
20260507012823 66 319 3.0 7.0 0.00 0.00 0.00 39 1005.1
20260507012321 66 97 1.0 2.0 0.00 0.00 0.00 39 1005.1
20260507011822 66 88 2.0 3.0 0.00 0.00 0.00 39 1004.7
20260507011324 66 202 1.0 1.0 0.00 0.00 0.00 40 1005.1
20260507010740 66 327 2.0 2.0 0.00 0.00 0.00 40 1004.7
20260507010225 67 189 1.0 2.0 0.00 0.00 0.00 40 1005.1
20260507005724 67 81 3.0 5.0 0.00 0.00 0.00 40 1004.7
20260507005223 68 234 2.0 3.0 0.00 0.00 0.00 40 1004.7
20260507004722 68 57 1.0 2.0 0.00 0.00 0.00 40 1004.7
20260507004220 68 170 2.0 3.0 0.00 0.00 0.00 40 1004.7
20260507003721 68 0 3.0 3.0 0.00 0.00 0.00 38 1004.7
20260507003222 68 166 2.0 3.0 0.00 0.00 0.00 37 1004.7
20260507002722 68 190 1.0 1.0 0.00 0.00 0.00 38 1004.7
20260507002220 69 169 4.0 8.0 0.00 0.00 0.00 37 1004.4
20260507001720 69 227 0.0 1.0 0.00 0.00 0.00 37 1004.4
20260507001222 69 266 1.0 1.0 0.00 0.00 0.00 37 1004.4
20260507000720 69 286 2.0 3.0 0.00 0.00 0.00 37 1004.4
20260507000220 69 301 1.0 2.0 0.00 0.00 0.00 37 1004.4
20260506235719 69 308 1.0 2.0 0.00 0.00 0.00 37 1004.1
20260506235218 70 247 2.0 3.0 0.00 0.00 0.00 37 1004.1
20260506234718 70 188 0.0 0.0 0.00 0.00 0.00 37 1004.1
20260506234218 70 79 1.0 2.0 0.00 0.00 0.00 37 1004.1
20260506233740 70 229 4.0 7.0 0.00 0.00 0.00 37 1004.4
20260506233240 71 264 1.0 2.0 0.00 0.00 0.00 36 1004.4
20260506232740 71 146 1.0 2.0 0.00 0.00 0.00 35 1004.4
20260506232238 71 52 3.0 5.0 0.00 0.00 0.00 35 1004.1
20260506231739 71 132 0.0 1.0 0.00 0.00 0.00 34 1004.4
20260506231240 72 74 2.0 3.0 0.00 0.00 0.00 34 1004.1
20260506230738 72 100 3.0 3.0 0.00 0.00 0.00 34 1004.1
20260506230219 72 110 0.0 1.0 0.00 0.00 0.00 34 1004.4
20260506225717 72 114 4.0 8.0 0.00 0.00 0.00 34 1004.1
20260506225219 72 139 0.0 1.0 0.00 0.00 0.00 33 1004.1
20260506224718 71 152 0.0 1.0 0.00 0.00 0.00 34 1004.4
20260506224219 71 6 1.0 2.0 0.00 0.00 0.00 33 1004.7
20260506223718 71 105 1.0 2.0 0.00 0.00 0.00 34 1004.4
20260506223220 71 177 0.0 1.0 0.00 0.00 0.00 34 1004.4
20260506222716 71 99 0.0 2.0 0.00 0.00 0.00 33 1004.7
20260506222216 72 136 1.0 2.0 0.00 0.00 0.00 34 1004.7
20260506221717 72 128 1.0 2.0 0.00 0.00 0.00 34 1004.4
20260506221141 72 128 3.0 3.0 0.00 0.00 0.00 34 1004.7
20260506220643 72 52 2.0 3.0 0.00 0.00 0.00 34 1004.7
20260506220139 72 89 2.0 3.0 0.00 0.00 0.00 33 1004.7
20260506215637 71 73 2.0 3.0 0.00 0.00 0.00 32 1004.7
20260506215139 71 163 1.0 2.0 0.00 0.00 0.00 32 1004.7
20260506214637 71 87 2.0 2.0 0.00 0.00 0.00 34 1004.7
20260506214142 71 101 2.0 3.0 0.00 0.00 0.00 34 1004.7
20260506213641 71 128 1.0 1.0 0.00 0.00 0.00 34 1004.7
20260506213139 71 53 2.0 2.0 0.00 0.00 0.00 34 1004.7
20260506212643 72 123 1.0 1.0 0.00 0.00 0.00 33 1004.7
20260506212138 72 115 0.0 1.0 0.00 0.00 0.00 34 1004.7
20260506211641 71 165 1.0 2.0 0.00 0.00 0.00 34 1005.1
20260506211139 71 101 1.0 2.0 0.00 0.00 0.00 33 1005.1
20260506210639 71 109 0.0 1.0 0.00 0.00 0.00 34 1005.1
20260506210142 71 153 0.0 1.0 0.00 0.00 0.00 33 1005.1
20260506205641 70 163 1.0 1.0 0.00 0.00 0.00 34 1005.1
20260506205139 70 102 3.0 5.0 0.00 0.00 0.00 34 1005.1
20260506204644 70 201 0.0 0.0 0.00 0.00 0.00 34 1005.1
20260506204138 70 109 3.0 5.0 0.00 0.00 0.00 35 1005.1
20260506203644 71 143 3.0 5.0 0.00 0.00 0.00 34 1005.1
20260506203137 71 194 0.0 1.0 0.00 0.00 0.00 35 1005.4
20260506202637 72 101 3.0 6.0 0.00 0.00 0.00 34 1005.1
20260506202113 72 129 2.0 2.0 0.00 0.00 0.00 34 1005.1
20260506201613 72 122 6.0 8.0 0.00 0.00 0.00 33 1005.1
20260506201114 73 91 0.0 3.0 0.00 0.00 0.00 33 1005.1
20260506200612 73 64 1.0 2.0 0.00 0.00 0.00 33 1005.1
20260506200112 72 230 3.0 3.0 0.00 0.00 0.00 32 1005.4
20260506195614 72 196 0.0 0.0 0.00 0.00 0.00 32 1005.1
20260506195111 71 253 1.0 1.0 0.00 0.00 0.00 32 1005.1
20260506194617 71 297 0.0 0.0 0.00 0.00 0.00 32 1005.4
20260506194113 71 266 2.0 2.0 0.00 0.00 0.00 33 1005.1
20260506193611 71 171 1.0 1.0 0.00 0.00 0.00 33 1005.4
20260506193111 71 280 3.0 6.0 0.00 0.00 0.00 34 1005.4
20260506192611 71 261 0.0 1.0 0.00 0.00 0.00 34 1005.8
20260506192110 71 144 0.0 1.0 0.00 0.00 0.00 35 1005.8
20260506191615 70 107 2.0 3.0 0.00 0.00 0.00 34 1005.8
20260506191116 70 320 2.0 2.0 0.00 0.00 0.00 33 1005.8
20260506190610 69 130 1.0 1.0 0.00 0.00 0.00 34 1006.1
20260506190111 69 238 0.0 1.0 0.00 0.00 0.00 34 1005.8
20260506185538 69 81 3.0 3.0 0.00 0.00 0.00 34 1006.1
20260506185036 68 211 0.0 1.0 0.00 0.00 0.00 35 1006.1
20260506184537 68 208 0.0 1.0 0.00 0.00 0.00 36 1006.1
20260506184038 67 112 1.0 2.0 0.00 0.00 0.00 36 1006.1
20260506183537 67 81 2.0 2.0 0.00 0.00 0.00 35 1006.4
20260506183038 66 103 0.0 1.0 0.00 0.00 0.00 36 1006.4
20260506182536 66 80 1.0 2.0 0.00 0.00 0.00 36 1006.4
20260506182037 66 104 2.0 5.0 0.00 0.00 0.00 36 1006.4
20260506181537 66 93 1.0 2.0 0.00 0.00 0.00 37 1006.4
20260506181037 66 98 3.0 5.0 0.00 0.00 0.00 37 1006.4
20260506180542 65 132 1.0 2.0 0.00 0.00 0.00 37 1006.8
20260506180042 65 139 3.0 3.0 0.00 0.00 0.00 37 1006.8
20260506175544 65 155 0.0 1.0 0.00 0.00 0.00 37 1006.4
20260506175043 64 160 2.0 2.0 0.00 0.00 0.00 38 1006.8
20260506174537 64 111 1.0 2.0 0.00 0.00 0.00 37 1006.8
20260506174038 64 119 0.0 1.0 0.00 0.00 0.00 38 1006.8
20260506173538 63 302 1.0 1.0 0.00 0.00 0.00 38 1007.1
20260506173038 63 295 1.0 2.0 0.00 0.00 0.00 38 1007.1
20260506172525 62 167 0.0 0.0 0.00 0.00 0.00 37 1007.5
20260506172022 62 171 0.0 0.0 0.00 0.00 0.00 38 1007.5
20260506171522 61 95 1.0 1.0 0.00 0.00 0.00 38 1007.5
20260506171021 61 24 0.0 1.0 0.00 0.00 0.00 37 1007.5
20260506170524 60 139 0.0 1.0 0.00 0.00 0.00 39 1007.5
20260506170022 60 163 0.0 1.0 0.00 0.00 0.00 40 1007.5
20260506165521 59 240 1.0 2.0 0.00 0.00 0.00 40 1007.8
20260506165022 59 227 1.0 1.0 0.00 0.00 0.00 40 1007.5
20260506164525 58 108 0.0 1.0 0.00 0.00 0.00 41 1007.8
20260506164022 57 246 0.0 1.0 0.00 0.00 0.00 41 1007.8
20260506163520 55 266 2.0 3.0 0.00 0.00 0.00 41 1007.8
20260506163021 55 207 0.0 0.0 0.00 0.00 0.00 41 1007.8
20260506162521 54 185 0.0 0.0 0.00 0.00 0.00 43 1008.1
20260506162021 53 265 1.0 1.0 0.00 0.00 0.00 45 1007.8
20260506161521 53 278 1.0 1.0 0.00 0.00 0.00 46 1008.1
20260506161020 52 280 2.0 2.0 0.00 0.00 0.00 48 1008.1
20260506160520 51 199 1.0 1.0 0.00 0.00 0.00 47 1008.1
20260506160020 51 248 1.0 2.0 0.00 0.00 0.00 46 1008.1
20260506155521 50 201 0.0 1.0 0.00 0.00 0.00 46 1008.1
20260506155019 49 183 0.0 0.0 0.00 0.00 0.00 46 1008.5
20260506154520 49 247 1.0 1.0 0.00 0.00 0.00 48 1008.1
20260506154022 48 281 2.0 2.0 0.00 0.00 0.00 51 1008.5
20260506153520 48 230 1.0 2.0 0.00 0.00 0.00 51 1008.5
20260506153019 48 261 2.0 2.0 0.00 0.00 0.00 50 1008.5
20260506152519 47 196 0.0 0.0 0.00 0.00 0.00 49 1008.5
20260506152021 46 276 2.0 2.0 0.00 0.00 0.00 51 1008.5
20260506151517 45 173 0.0 0.0 0.00 0.00 0.00 51 1008.8
20260506151019 44 199 0.0 1.0 0.00 0.00 0.00 51 1008.5
20260506150518 44 249 0.0 1.0 0.00 0.00 0.00 52 1008.5
20260506150019 43 333 2.0 3.0 0.00 0.00 0.00 54 1008.8
20260506145518 43 198 0.0 0.0 0.00 0.00 0.00 54 1008.8
20260506145018 42 344 2.0 2.0 0.00 0.00 0.00 55 1008.8
20260506144518 42 223 1.0 2.0 0.00 0.00 0.00 56 1008.8
20260506144017 42 202 1.0 1.0 0.00 0.00 0.00 58 1008.8
20260506143516 42 250 1.0 2.0 0.00 0.00 0.00 57 1008.8
20260506143018 41 239 1.0 2.0 0.00 0.00 0.00 57 1008.8
20260506142516 41 131 0.0 0.0 0.00 0.00 0.00 58 1009.1
20260506142016 40 240 1.0 1.0 0.00 0.00 0.00 58 1009.1
20260506141517 40 264 1.0 1.0 0.00 0.00 0.00 57 1009.1
20260506141016 39 177 0.0 0.0 0.00 0.00 0.00 56 1009.1
20260506140516 38 213 0.0 0.0 0.00 0.00 0.00 60 1009.1
20260506140016 38 198 0.0 0.0 0.00 0.00 0.00 60 1009.5
20260506135516 37 297 1.0 1.0 0.00 0.00 0.00 61 1009.1
20260506135015 37 223 0.0 0.0 0.00 0.00 0.00 62 1009.5
20260506134520 37 280 1.0 1.0 0.00 0.00 0.00 62 1009.5
20260506134015 36 217 0.0 1.0 0.00 0.00 0.00 63 1009.1
20260506133514 36 229 0.0 1.0 0.00 0.00 0.00 64 1009.1
20260506133016 35 242 1.0 1.0 0.00 0.00 0.00 64 1009.1
20260506132514 35 283 1.0 1.0 0.00 0.00 0.00 64 1009.5
20260506132015 35 230 0.0 1.0 0.00 0.00 0.00 64 1009.5
20260506131516 34 231 0.0 1.0 0.00 0.00 0.00 65 1009.5
20260506131017 34 217 0.0 0.0 0.00 0.00 0.00 65 1009.5
20260506130514 34 268 1.0 1.0 0.00 0.00 0.00 65 1009.5
20260506130013 33 239 0.0 1.0 0.00 0.00 0.00 66 1009.5
20260506125512 33 244 1.0 1.0 0.00 0.00 0.00 66 1009.5
20260506125014 33 242 0.0 1.0 0.00 0.00 0.00 66 1009.5
20260506124511 32 269 1.0 1.0 0.00 0.00 0.00 66 1009.5
20260506124014 32 220 0.0 0.0 0.00 0.00 0.00 67 1009.5
20260506123514 32 270 1.0 2.0 0.00 0.00 0.00 67 1009.5
20260506123016 32 239 0.0 0.0 0.00 0.00 0.00 68 1009.8
20260506122516 32 226 0.0 0.0 0.00 0.00 0.00 68 1009.5
20260506122014 32 219 0.0 0.0 0.00 0.00 0.00 69 1009.8
20260506121514 32 235 0.0 0.0 0.00 0.00 0.00 70 1009.5
20260506121011 32 221 0.0 0.0 0.00 0.00 0.00 71 1009.5
20260506120516 32 208 0.0 0.0 0.00 0.00 0.00 71 1009.8
20260506120013 32 208 0.0 0.0 0.00 0.00 0.00 71 1009.8
20260506115514 32 199 0.0 0.0 0.00 0.00 0.00 71 1010.2
20260506115012 32 219 0.0 0.0 0.00 0.00 0.00 70 1010.2